Weather History for Coeur d'Alene, ID

Change the Weather History Date:

Sunday, December 8, 2013

  Actual Average Record
Temperature  
Mean Temperature 6 °F -  
Max Temperature 12 °F 34 °F 42 °F (2004)
Min Temperature 0 °F 25 °F 0 °F (2013)
Degree Days  
Heating Degree Days 59    
Moisture  
Dew Point 0 °F    
Average Humidity 69    
Maximum Humidity 85    
Minimum Humidity 61    
Precipitation  
Precipitation 0.00 in - - ()
Sea Level Pressure  
Sea Level Pressure 30.35 in    
Wind  
Wind Speed 5 mph (SSW)    
Max Wind Speed 10 mph    
Max Gust Speed -    
Visibility 10 miles    
Events      
Averages and records for this station are not official NWS values.
T = Trace of Precipitation, MM = Missing Value Source: NWS Daily Summary

Daily Weather History Graph

Daily Weather History Graph

Search for Another Location

Airport:

Trip Planner

Search our weather history database for the weather conditions in past years. The results will help you decide how hot, cold, wet, or windy it might be!

Date:

Astronomy

Dec. 08, 2013 Rise Set
Actual Time 7:23 AM PST 3:55 PM PST
Civil Twilight 6:47 AM PST 4:30 PM PST
Nautical Twilight 6:08 AM PST 5:10 PM PST
Astronomical Twilight 5:30 AM PST 5:47 PM PST
Moon 11:25 AM PST (12/8) 11:12 PM PST (12/8)
Length of Visible Light 9h 43m
Length of Day
8h 31m
Waxing Crescent, 41% of the Moon is Illuminated
Dec 8
Waxing Crescent
Dec 9
First Quarter
Dec 17
Full
Dec 25
Last Quarter
Jan 1
New

Hourly Weather History & Observations

Time (PST) Temp. Windchill Dew Point Humidity Pressure Visibility Wind Dir Wind Speed Gust Speed Precip Events Conditions
12:15 AM 1.4 °F -9.9 °F -7.6 °F 66% 30.27 in 10.0 mi SW 5.8 mph - N/A   Clear
12:35 AM 1.4 °F -8.3 °F -5.8 °F 72% 30.27 in 10.0 mi WSW 4.6 mph - N/A   Clear
12:55 AM 1.4 °F -9.9 °F -7.6 °F 66% 30.28 in 10.0 mi SW 5.8 mph - N/A   Clear
1:15 AM -0.4 °F -12.0 °F -7.6 °F 72% 30.28 in 10.0 mi SSW 5.8 mph - N/A   Clear
1:35 AM -0.4 °F -12.0 °F -9.4 °F 66% 30.28 in 10.0 mi SSW 5.8 mph - N/A   Clear
1:55 AM 1.4 °F -8.3 °F -4.0 °F 78% 30.28 in 10.0 mi SW 4.6 mph - N/A   Clear
2:15 AM 1.4 °F -8.3 °F -2.2 °F 85% 30.28 in 10.0 mi South 4.6 mph - N/A   Clear
2:35 AM 1.4 °F -8.3 °F -5.8 °F 72% 30.28 in 10.0 mi WSW 4.6 mph - N/A   Clear
2:55 AM 3.2 °F -7.8 °F -5.8 °F 66% 30.28 in 10.0 mi SW 5.8 mph - N/A   Mostly Cloudy
3:15 AM 5.0 °F -5.6 °F -4.0 °F 66% 30.28 in 10.0 mi SSW 5.8 mph - N/A   Overcast
3:35 AM 6.8 °F -7.8 °F -0.4 °F 72% 30.28 in 10.0 mi SSW 10.4 mph - N/A   Overcast
3:55 AM 6.8 °F -6.9 °F -4.0 °F 61% 30.29 in 10.0 mi SSW 9.2 mph - N/A   Overcast
4:15 AM 6.8 °F -5.9 °F -2.2 °F 67% 30.28 in 10.0 mi South 8.1 mph - N/A   Overcast
4:35 AM 6.8 °F -6.9 °F -2.2 °F 67% 30.29 in 10.0 mi SSW 9.2 mph - N/A   Overcast
4:55 AM 6.8 °F -6.9 °F -2.2 °F 67% 30.29 in 9.0 mi South 9.2 mph - N/A   Overcast
5:15 AM 6.8 °F -3.5 °F -2.2 °F 67% 30.30 in 10.0 mi SW 5.8 mph - N/A   Overcast
5:35 AM 6.8 °F -3.5 °F -2.2 °F 67% 30.30 in 9.0 mi SW 5.8 mph - N/A   Overcast
5:55 AM 6.8 °F -0.1 °F -2.2 °F 67% 30.30 in 6.0 mi WSW 3.5 mph - N/A   Overcast
6:15 AM 6.8 °F - -2.2 °F 67% 30.31 in 2.0 mi Calm Calm - N/A   Overcast
6:35 AM 6.8 °F - 1.4 °F 79% 30.30 in 2.0 mi Calm Calm - N/A   Overcast
6:55 AM 6.8 °F - -0.4 °F 72% 30.31 in 10.0 mi Calm Calm - N/A   Mostly Cloudy
7:15 AM 6.8 °F - -0.4 °F 72% 30.31 in 8.0 mi Calm Calm - N/A   Overcast
7:35 AM 6.8 °F - -0.4 °F 72% 30.31 in 9.0 mi Calm Calm - N/A   Overcast
7:55 AM 6.8 °F - -0.4 °F 72% 30.32 in 10.0 mi Calm Calm - N/A   Overcast
8:15 AM 6.8 °F - -0.4 °F 72% 30.33 in 9.0 mi Calm Calm - N/A   Overcast
8:35 AM 6.8 °F -0.1 °F -0.4 °F 72% 30.33 in 8.0 mi West 3.5 mph - N/A   Overcast
8:55 AM 6.8 °F -0.1 °F -0.4 °F 72% 30.33 in 6.0 mi West 3.5 mph - N/A   Overcast
9:15 AM 6.8 °F -0.1 °F -0.4 °F 72% 30.34 in 9.0 mi West 3.5 mph - N/A   Overcast
9:35 AM 6.8 °F -0.1 °F -0.4 °F 72% 30.35 in 10.0 mi West 3.5 mph - N/A   Overcast
9:55 AM 8.6 °F 0.1 °F -0.4 °F 67% 30.35 in 10.0 mi West 4.6 mph - N/A   Overcast
10:15 AM 8.6 °F 2.0 °F 1.4 °F 73% 30.36 in 10.0 mi West 3.5 mph - N/A   Mostly Cloudy
10:35 AM 10.4 °F -0.4 °F 1.4 °F 67% 30.36 in 10.0 mi SW 6.9 mph - N/A   Partly Cloudy
10:55 AM 10.4 °F 0.8 °F 1.4 °F 67% 30.36 in 10.0 mi SSW 5.8 mph - N/A   Partly Cloudy
11:15 AM 10.4 °F 0.8 °F 1.4 °F 67% 30.36 in 10.0 mi West 5.8 mph - N/A   Mostly Cloudy
11:35 AM 10.4 °F 2.2 °F 1.4 °F 67% 30.35 in 10.0 mi SW 4.6 mph - N/A   Scattered Clouds
11:55 AM 10.4 °F -0.4 °F 5.0 °F 79% 30.35 in 10.0 mi WSW 6.9 mph - N/A   Partly Cloudy
12:15 PM 10.4 °F 4.0 °F 1.4 °F 67% 30.36 in 10.0 mi West 3.5 mph - N/A   Scattered Clouds
12:35 PM 12.2 °F - 1.4 °F 62% 30.36 in 10.0 mi Calm Calm - N/A   Mostly Cloudy
12:55 PM 12.2 °F 4.3 °F 3.2 °F 67% 30.35 in 10.0 mi WSW 4.6 mph - N/A   Overcast
1:15 PM 12.2 °F 2.9 °F 1.4 °F 62% 30.35 in 10.0 mi SSE 5.8 mph - N/A   Partly Cloudy
1:35 PM 12.2 °F 4.3 °F 1.4 °F 62% 30.35 in 10.0 mi South 4.6 mph - N/A   Scattered Clouds
1:55 PM 12.2 °F 2.9 °F 1.4 °F 62% 30.35 in 10.0 mi SSE 5.8 mph - N/A   Mostly Cloudy
2:15 PM 12.2 °F 2.9 °F 1.4 °F 62% 30.36 in 10.0 mi South 5.8 mph - N/A   Partly Cloudy
2:35 PM 12.2 °F 2.9 °F 3.2 °F 67% 30.37 in 10.0 mi SSE 5.8 mph - N/A   Clear
2:55 PM 12.2 °F 4.3 °F 1.4 °F 62% 30.37 in 10.0 mi SE 4.6 mph - N/A   Clear
3:15 PM 12.2 °F 2.9 °F 3.2 °F 67% 30.37 in 10.0 mi SSE 5.8 mph - N/A   Clear
3:35 PM 10.4 °F 0.8 °F 3.2 °F 73% 30.37 in 10.0 mi SSE 5.8 mph - N/A   Clear
3:55 PM 10.4 °F 4.0 °F 3.2 °F 73% 30.38 in 10.0 mi SE 3.5 mph - N/A   Clear
4:15 PM 10.4 °F 2.2 °F 1.4 °F 67% 30.38 in 10.0 mi SE 4.6 mph - N/A   Clear
4:35 PM 8.6 °F 0.1 °F 3.2 °F 79% 30.39 in 10.0 mi SSE 4.6 mph - N/A   Clear
4:55 PM 8.6 °F 2.0 °F 3.2 °F 79% 30.40 in 10.0 mi SSE 3.5 mph - N/A   Clear
5:15 PM 8.6 °F -1.3 °F 3.2 °F 79% 30.40 in 10.0 mi SSE 5.8 mph - N/A   Clear
5:35 PM 10.4 °F 0.8 °F 3.2 °F 73% 30.40 in 10.0 mi SSE 5.8 mph - N/A   Mostly Cloudy
5:55 PM 10.4 °F -0.4 °F 5.0 °F 79% 30.40 in 10.0 mi SSE 6.9 mph - N/A   Overcast
6:15 PM 10.4 °F 0.8 °F 3.2 °F 73% 30.39 in 10.0 mi South 5.8 mph - N/A   Overcast
6:35 PM 10.4 °F 2.2 °F 3.2 °F 73% 30.39 in 10.0 mi South 4.6 mph - N/A   Overcast
6:55 PM 12.2 °F 4.3 °F 3.2 °F 67% 30.40 in 10.0 mi South 4.6 mph - N/A   Overcast
7:15 PM 12.2 °F 4.3 °F 3.2 °F 67% 30.41 in 10.0 mi South 4.6 mph - N/A   Overcast
7:35 PM 12.2 °F 4.3 °F 3.2 °F 67% 30.42 in 10.0 mi SSW 4.6 mph - N/A   Overcast
7:55 PM 12.2 °F 6.1 °F 3.2 °F 67% 30.43 in 10.0 mi WSW 3.5 mph - N/A   Overcast
8:15 PM 10.4 °F 2.2 °F 3.2 °F 73% 30.43 in 10.0 mi WSW 4.6 mph - N/A   Overcast
8:35 PM 10.4 °F 2.2 °F 1.4 °F 67% 30.42 in 10.0 mi WSW 4.6 mph - N/A   Overcast
8:55 PM 10.4 °F 0.8 °F 1.4 °F 67% 30.43 in 10.0 mi WSW 5.8 mph - N/A   Overcast
9:15 PM 10.4 °F 2.2 °F 1.4 °F 67% 30.41 in 10.0 mi SW 4.6 mph - N/A   Overcast
9:35 PM 10.4 °F 2.2 °F 1.4 °F 67% 30.42 in 10.0 mi WSW 4.6 mph - N/A   Overcast
9:55 PM 10.4 °F -0.4 °F 1.4 °F 67% 30.43 in 10.0 mi West 6.9 mph - N/A   Overcast
10:15 PM 10.4 °F 4.0 °F 1.4 °F 67% 30.43 in 10.0 mi West 3.5 mph - N/A   Overcast
10:35 PM 10.4 °F 2.2 °F 1.4 °F 67% 30.43 in 10.0 mi West 4.6 mph - N/A   Overcast
10:55 PM 10.4 °F 2.2 °F 1.4 °F 67% 30.43 in 10.0 mi SW 4.6 mph - N/A   Overcast
11:15 PM 10.4 °F 0.8 °F 1.4 °F 67% 30.43 in 10.0 mi SW 5.8 mph - N/A   Overcast
11:35 PM 10.4 °F 2.2 °F 1.4 °F 67% 30.43 in 10.0 mi WSW 4.6 mph - N/A   Overcast
11:55 PM 12.2 °F 6.1 °F 1.4 °F 62% 30.43 in 10.0 mi WSW 3.5 mph - N/A   Overcast